{"data":{"norad_id":43783,"epoch":"2026-05-25T01:55:55.816896Z","epoch_age_seconds":64720,"freshness":"FRESH","line1":"1 43783U 18099AB  26145.08050714  .00000732  00000+0  63678-4 0  9990","line2":"2 43783  97.4277 178.0612 0006372 130.4440 229.7340 14.99801738407842","mean_motion":14.99801738,"eccentricity":0.0006372,"inclination_deg":97.4277,"raan_deg":178.0612,"arg_perigee_deg":130.444,"mean_anomaly_deg":229.734,"bstar":6.3678e-5,"rev_number":40784,"period_min":96.012690445355,"perigee_km":563.08261947319,"apogee_km":571.93414995147,"semimajor_km":6945.6453847123,"source":"CELESTRAK","updated_at":"2026-05-25T13:38:12.831492Z"}}